ATHENOXAT 1 (41168 NORAD) Tracking and Keplerian Element Data

This shows tracking and keplerian element data for the satellite.

Feedback or suggestion? Click here.




ElementValue
Catalog41168
NameATHENOXAT 1
Epoch Orbit16188
Epoch Day323.15020573
Epoch Year2018
RAAN325.8236
Inclination14.9878
Eccentricity0.0011967
Argument of Perigee35.3291
Mean Anonmoly28.1133
Mean Motion15.13146216
Decay Rate1.778E-05
L11 41168U 15077C 18323.15020573 .00001778 00000-0 59783-4 0 9999
L22 41168 14.9878 325.8236 0011967 35.3291 28.1133 15.13146216161887

Live tracking and technical data element details for ATHENOXAT 1 (NORAD 41168). ATHENOXAT 1 can be tracked NOW for your location showing map with azimuth and elevation plus other details from your city location.

Track the satellite on the map from your city or location and see movement details for azimuth, elevation, latitude, longitude, range, height, and movement on the map or in text.







IsCatalogInMostPopularTable: catalog: 41168, numindb: 125
Update: records affected: 1



GetName: 41168 ATHENOXAT 1

Hit Count: updated at: Mon, 19 Nov 2018 14:09:21 GMT